This is the latest recevied weather packets stored in our database for station/object W8KVG. If no packets are shown the sender has not sent any weather packets the latest 10 day(s).
| Time | Temp. | Humidity | Pressure | Rain* | Wind** | Luminosity | Snow |
|---|---|---|---|---|---|---|---|
| 1777762951 | 5.56° C | 77% | 1015.1 hPa | 0 mm | - | 36 W/m² | - |
| 1777762647 | 5.56° C | 75% | 1015 hPa | 0 mm | - | 44 W/m² | - |
| 1777762344 | 5.56° C | 75% | 1014.9 hPa | 0 mm | - | 47 W/m² | - |
| 1777762040 | 5.56° C | 76% | 1015.2 hPa | 0 mm | - | 46 W/m² | - |
| 1777761737 | 5.56° C | 76% | 1015.1 hPa | 0 mm | - | 40 W/m² | - |
| 1777761434 | 5.56° C | 75% | 1015.3 hPa | 0 mm | - | 36 W/m² | - |
| 1777761132 | 5.56° C | 75% | 1014.9 hPa | 0 mm | - | 42 W/m² | - |
| 1777760830 | 5.56° C | 74% | 1015.1 hPa | 0 mm | - | 51 W/m² | - |
| 1777760526 | 5.56° C | 75% | 1015 hPa | 0 mm | - | 58 W/m² | - |
| 1777760222 | 5.56° C | 76% | 1015 hPa | 0 mm | - | 62 W/m² | - |
| 1777759919 | 5.56° C | 73% | 1015 hPa | 0 mm | - | 66 W/m² | - |
| 1777759615 | 5.56° C | 72% | 1015 hPa | 0 mm | - | 71 W/m² | - |
| 1777759311 | 5.56° C | 72% | 1015.2 hPa | 0 mm | - | 74 W/m² | - |
| 1777759009 | 5.56° C | 75% | 1015.1 hPa | 0 mm | - | 82 W/m² | - |
| 1777758705 | 5.56° C | 75% | 1015 hPa | 0 mm | - | 63 W/m² | - |
| 1777758403 | 5.56° C | 75% | 1014.9 hPa | 0 mm | - | 52 W/m² | - |
| 1777758100 | 6.11° C | 75% | 1014.9 hPa | 0 mm | - | 44 W/m² | - |
| 1777757797 | 6.11° C | 73% | 1014.8 hPa | 0 mm | - | 60 W/m² | - |
| 1777757494 | 6.11° C | 74% | 1014.8 hPa | 0 mm | - | 49 W/m² | - |
| 1777757193 | 6.11° C | 75% | 1015.1 hPa | 0 mm | - | 57 W/m² | - |
| 1777756891 | 6.67° C | 72% | 1014.8 hPa | 0 mm | - | 87 W/m² | - |
| 1777756586 | 6.67° C | 72% | 1014.8 hPa | 0 mm | - | 96 W/m² | - |
| 1777756283 | 6.67° C | 73% | 1014.8 hPa | 0 mm | - | 127 W/m² | - |
| 1777755981 | 6.67° C | 72% | 1014.8 hPa | 0 mm | - | 175 W/m² | - |
| 1777755673 | 6.67° C | 71% | 1014.6 hPa | 0 mm | - | 336 W/m² | - |
* Rain latest hour (hover to see other rain measurements)
** Current wind speed in m/s (hover to see current wind gust speed)